Year,Month,Day,Hour,Minute,Value (Times are PST for temperature in C)
2009,08,11,00,00,13.30
2009,08,11,00,01,13.30
2009,08,11,00,02,13.30
2009,08,11,00,03,13.30
2009,08,11,00,04,13.30
2009,08,11,00,05,13.30
2009,08,11,00,06,13.40
2009,08,11,00,07,13.40
2009,08,11,00,08,13.50
2009,08,11,00,09,13.50
2009,08,11,00,10,13.60
2009,08,11,00,11,13.60
2009,08,11,00,12,13.60
2009,08,11,00,13,13.70
2009,08,11,00,14,13.70
2009,08,11,00,15,13.70
2009,08,11,00,16,13.70
2009,08,11,00,17,13.70
2009,08,11,00,18,13.70
2009,08,11,00,19,13.80
2009,08,11,00,20,13.90
2009,08,11,00,21,13.90
2009,08,11,00,22,13.90
2009,08,11,00,23,13.90
2009,08,11,00,24,14.00
2009,08,11,00,25,14.00
2009,08,11,00,26,14.00
2009,08,11,00,27,14.00
2009,08,11,00,28,14.00
2009,08,11,00,29,14.00
2009,08,11,00,30,14.00
2009,08,11,00,31,14.00
2009,08,11,00,32,14.00
2009,08,11,00,33,14.10
2009,08,11,00,34,14.20
2009,08,11,00,35,14.20
2009,08,11,00,36,14.20
2009,08,11,00,37,14.20
2009,08,11,00,38,14.30
2009,08,11,00,39,14.30
2009,08,11,00,40,14.40
2009,08,11,00,41,14.40
2009,08,11,00,42,14.40
2009,08,11,00,43,14.50
2009,08,11,00,44,14.50
2009,08,11,00,45,14.50
2009,08,11,00,46,14.50
2009,08,11,00,47,14.50
2009,08,11,00,48,14.50
2009,08,11,00,49,14.50
2009,08,11,00,50,14.50
2009,08,11,00,51,14.40
2009,08,11,00,52,14.40
2009,08,11,00,53,14.40
2009,08,11,00,54,14.40
2009,08,11,00,55,14.40
2009,08,11,00,56,14.40
2009,08,11,00,57,14.40
2009,08,11,00,58,14.40
2009,08,11,00,59,14.50
2009,08,11,01,00,14.50
2009,08,11,01,01,14.50
2009,08,11,01,02,14.50
2009,08,11,01,03,14.50
2009,08,11,01,04,14.50
2009,08,11,01,05,14.50
2009,08,11,01,06,14.50
2009,08,11,01,07,14.50
2009,08,11,01,08,14.50
2009,08,11,01,09,14.50
2009,08,11,01,10,14.50
2009,08,11,01,11,14.50
2009,08,11,01,12,14.50
2009,08,11,01,13,14.50
2009,08,11,01,14,14.50
2009,08,11,01,15,14.50
2009,08,11,01,16,14.50
2009,08,11,01,17,14.50
2009,08,11,01,18,14.50
2009,08,11,01,19,14.50
2009,08,11,01,20,14.50
2009,08,11,01,21,14.50
2009,08,11,01,22,14.50
2009,08,11,01,23,14.50
2009,08,11,01,24,14.50
2009,08,11,01,25,14.50
2009,08,11,01,26,14.40
2009,08,11,01,27,14.40
2009,08,11,01,28,14.40
2009,08,11,01,29,14.40
2009,08,11,01,30,14.40
2009,08,11,01,31,14.40
2009,08,11,01,32,14.40
2009,08,11,01,33,14.40
2009,08,11,01,34,14.40
2009,08,11,01,35,14.40
2009,08,11,01,36,14.40
2009,08,11,01,37,14.40
2009,08,11,01,38,14.40
2009,08,11,01,39,14.40
2009,08,11,01,40,14.40
2009,08,11,01,41,14.40
2009,08,11,01,42,14.40
2009,08,11,01,43,14.40
2009,08,11,01,44,14.40
2009,08,11,01,45,14.40
2009,08,11,01,46,14.40
2009,08,11,01,47,14.40
2009,08,11,01,48,14.40
2009,08,11,01,49,14.40
2009,08,11,01,50,14.40
2009,08,11,01,51,14.40
2009,08,11,01,52,14.40
2009,08,11,01,53,14.40
2009,08,11,01,54,14.40
2009,08,11,01,55,14.40
2009,08,11,01,56,14.40
2009,08,11,01,57,14.40
2009,08,11,01,58,14.40
2009,08,11,01,59,14.40
2009,08,11,02,00,14.40
2009,08,11,02,01,14.40
2009,08,11,02,02,14.40
2009,08,11,02,03,14.40
2009,08,11,02,04,14.40
2009,08,11,02,05,14.40
2009,08,11,02,06,14.50
2009,08,11,02,07,14.50
2009,08,11,02,08,14.50
2009,08,11,02,09,14.50
2009,08,11,02,10,14.50
2009,08,11,02,11,14.50
2009,08,11,02,12,14.50
2009,08,11,02,13,14.50
2009,08,11,02,14,14.50
2009,08,11,02,15,14.50
2009,08,11,02,16,14.50
2009,08,11,02,17,14.50
2009,08,11,02,18,14.50
2009,08,11,02,19,14.50
2009,08,11,02,20,14.50
2009,08,11,02,21,14.50
2009,08,11,02,22,14.60
2009,08,11,02,23,14.60
2009,08,11,02,24,14.60
2009,08,11,02,25,14.60
2009,08,11,02,26,14.60
2009,08,11,02,27,14.60
2009,08,11,02,28,14.60
2009,08,11,02,29,14.60
2009,08,11,02,30,14.60
2009,08,11,02,31,14.60
2009,08,11,02,32,14.60
2009,08,11,02,33,14.60
2009,08,11,02,34,14.60
2009,08,11,02,35,14.60
2009,08,11,02,36,14.60
2009,08,11,02,37,14.70
2009,08,11,02,38,14.70
2009,08,11,02,39,14.70
2009,08,11,02,40,14.70
2009,08,11,02,41,14.80
2009,08,11,02,42,14.80
2009,08,11,02,43,14.80
2009,08,11,02,44,14.80
2009,08,11,02,45,14.80
2009,08,11,02,46,14.80
2009,08,11,02,47,14.80
2009,08,11,02,48,14.80
2009,08,11,02,49,14.80
2009,08,11,02,50,14.80
2009,08,11,02,51,14.80
2009,08,11,02,52,14.80
2009,08,11,02,53,14.80
2009,08,11,02,54,14.80
2009,08,11,02,55,14.80
2009,08,11,02,56,14.80
2009,08,11,02,57,14.80
2009,08,11,02,58,14.80
2009,08,11,02,59,14.80
2009,08,11,03,00,14.80
2009,08,11,03,01,14.80
2009,08,11,03,02,14.80
2009,08,11,03,03,14.80
2009,08,11,03,04,14.80
2009,08,11,03,05,14.70
2009,08,11,03,06,14.70
2009,08,11,03,07,14.70
2009,08,11,03,08,14.60
2009,08,11,03,09,14.60
2009,08,11,03,10,14.60
2009,08,11,03,11,14.60
2009,08,11,03,12,14.60
2009,08,11,03,13,14.60
2009,08,11,03,14,14.60
2009,08,11,03,15,14.60
2009,08,11,03,16,14.60
2009,08,11,03,17,14.50
2009,08,11,03,18,14.50
2009,08,11,03,19,14.50
2009,08,11,03,20,14.40
2009,08,11,03,21,14.40
2009,08,11,03,22,14.40
2009,08,11,03,23,14.40
2009,08,11,03,24,14.50
2009,08,11,03,25,14.50
2009,08,11,03,26,14.50
2009,08,11,03,27,14.50
2009,08,11,03,28,14.50
2009,08,11,03,29,14.50
2009,08,11,03,30,14.50
2009,08,11,03,31,14.50
2009,08,11,03,32,14.50
2009,08,11,03,33,14.50
2009,08,11,03,34,14.50
2009,08,11,03,35,14.50
2009,08,11,03,36,14.50
2009,08,11,03,37,14.50
2009,08,11,03,38,14.50
2009,08,11,03,39,14.50
2009,08,11,03,40,14.50
2009,08,11,03,41,14.50
2009,08,11,03,42,14.50
2009,08,11,03,43,14.50
2009,08,11,03,44,14.50
2009,08,11,03,45,14.50
2009,08,11,03,46,14.50
2009,08,11,03,47,14.50
2009,08,11,03,48,14.50
2009,08,11,03,49,14.40
2009,08,11,03,50,14.40
2009,08,11,03,51,14.40
2009,08,11,03,52,14.40
2009,08,11,03,53,14.40
2009,08,11,03,54,14.50
2009,08,11,03,55,14.50
2009,08,11,03,56,14.50
2009,08,11,03,57,14.50
2009,08,11,03,58,14.50
2009,08,11,03,59,14.50
2009,08,11,04,00,14.50
2009,08,11,04,01,14.50
2009,08,11,04,02,14.50
2009,08,11,04,03,14.50
2009,08,11,04,04,14.50
2009,08,11,04,05,14.50
2009,08,11,04,06,14.50
2009,08,11,04,07,14.50
2009,08,11,04,08,14.50
2009,08,11,04,09,14.40
2009,08,11,04,10,14.40
2009,08,11,04,11,14.40
2009,08,11,04,12,14.40
2009,08,11,04,13,14.40
2009,08,11,04,14,14.40
2009,08,11,04,15,14.40
2009,08,11,04,16,14.30
2009,08,11,04,17,14.30
2009,08,11,04,18,14.20
2009,08,11,04,19,14.20
2009,08,11,04,20,14.20
2009,08,11,04,21,14.20
2009,08,11,04,22,14.20
2009,08,11,04,23,14.10
2009,08,11,04,24,14.10
2009,08,11,04,25,14.00
2009,08,11,04,26,14.00
2009,08,11,04,27,13.90
2009,08,11,04,28,13.90
2009,08,11,04,29,13.90
2009,08,11,04,30,13.80
2009,08,11,04,31,13.80
2009,08,11,04,32,13.80
2009,08,11,04,33,13.80
2009,08,11,04,34,13.80
2009,08,11,04,35,13.80
2009,08,11,04,36,13.80
2009,08,11,04,37,13.80
2009,08,11,04,38,13.80
2009,08,11,04,39,13.80
2009,08,11,04,40,13.70
2009,08,11,04,41,13.70
2009,08,11,04,42,13.70
2009,08,11,04,43,13.60
2009,08,11,04,44,13.60
2009,08,11,04,45,13.60
2009,08,11,04,46,13.60
2009,08,11,04,47,13.70
2009,08,11,04,48,13.70
2009,08,11,04,49,13.70
2009,08,11,04,50,13.60
2009,08,11,04,51,13.60
2009,08,11,04,52,13.60
2009,08,11,04,53,13.50
2009,08,11,04,54,13.50
2009,08,11,04,55,13.50
2009,08,11,04,56,13.40
2009,08,11,04,57,13.40
2009,08,11,04,58,13.30
2009,08,11,04,59,13.30
2009,08,11,05,00,13.30
2009,08,11,05,01,13.30
2009,08,11,05,02,13.30
2009,08,11,05,03,13.20
2009,08,11,05,04,13.20
2009,08,11,05,05,13.20
2009,08,11,05,06,13.20
2009,08,11,05,07,13.20
2009,08,11,05,08,13.20
2009,08,11,05,09,13.20
2009,08,11,05,10,13.30
2009,08,11,05,11,13.30
2009,08,11,05,12,13.30
2009,08,11,05,13,13.30
2009,08,11,05,14,13.30
2009,08,11,05,15,13.30
2009,08,11,05,16,13.30
2009,08,11,05,17,13.30
2009,08,11,05,18,13.30
2009,08,11,05,19,13.30
2009,08,11,05,20,13.30
2009,08,11,05,21,13.30
2009,08,11,05,22,13.30
2009,08,11,05,23,13.30
2009,08,11,05,24,13.30
2009,08,11,05,25,13.30
2009,08,11,05,26,13.30
2009,08,11,05,27,13.30
2009,08,11,05,28,13.30
2009,08,11,05,29,13.30
2009,08,11,05,30,13.30
2009,08,11,05,31,13.30
2009,08,11,05,32,13.30
2009,08,11,05,33,13.30
2009,08,11,05,34,13.30
2009,08,11,05,35,13.20
2009,08,11,05,36,13.20
2009,08,11,05,37,13.20
2009,08,11,05,38,13.10
2009,08,11,05,39,13.10
2009,08,11,05,40,13.10
2009,08,11,05,41,13.10
2009,08,11,05,42,13.10
2009,08,11,05,43,13.00
2009,08,11,05,44,13.00
2009,08,11,05,45,13.00
2009,08,11,05,46,13.00
2009,08,11,05,47,12.90
2009,08,11,05,48,12.90
2009,08,11,05,49,12.90
2009,08,11,05,50,12.80
2009,08,11,05,51,12.80
2009,08,11,05,52,12.80
2009,08,11,05,53,12.80
2009,08,11,05,54,12.80
2009,08,11,05,55,12.80
2009,08,11,05,56,12.70
2009,08,11,05,57,12.70
2009,08,11,05,58,12.70
2009,08,11,05,59,12.60
2009,08,11,06,00,12.60
2009,08,11,06,01,12.50
2009,08,11,06,02,12.50
2009,08,11,06,03,12.40
2009,08,11,06,04,12.40
2009,08,11,06,05,12.30
2009,08,11,06,06,12.30
2009,08,11,06,07,12.30
2009,08,11,06,08,12.30
2009,08,11,06,09,12.30
2009,08,11,06,10,12.30
2009,08,11,06,11,12.30
2009,08,11,06,12,12.30
2009,08,11,06,13,12.30
2009,08,11,06,14,12.30
2009,08,11,06,15,12.20
2009,08,11,06,16,12.20
2009,08,11,06,17,12.20
2009,08,11,06,18,12.10
2009,08,11,06,19,12.10
2009,08,11,06,20,12.10
2009,08,11,06,21,12.10
2009,08,11,06,22,12.10
2009,08,11,06,23,12.10
2009,08,11,06,24,12.10
2009,08,11,06,25,12.10
2009,08,11,06,26,12.10
2009,08,11,06,27,12.10
2009,08,11,06,28,12.10
2009,08,11,06,29,12.10
2009,08,11,06,30,12.20
2009,08,11,06,31,12.20
2009,08,11,06,32,12.10
2009,08,11,06,33,12.10
2009,08,11,06,34,12.10
2009,08,11,06,35,12.10
2009,08,11,06,36,12.10
2009,08,11,06,37,12.10
2009,08,11,06,38,12.10
2009,08,11,06,39,12.10
2009,08,11,06,40,12.10
2009,08,11,06,41,12.10
2009,08,11,06,42,12.10
2009,08,11,06,43,12.10
2009,08,11,06,44,12.10
2009,08,11,06,45,12.20
2009,08,11,06,46,12.20
2009,08,11,06,47,12.20
2009,08,11,06,48,12.20
2009,08,11,06,49,12.20
2009,08,11,06,50,12.30
2009,08,11,06,51,12.30
2009,08,11,06,52,12.30
2009,08,11,06,53,12.30
2009,08,11,06,54,12.30
2009,08,11,06,55,12.30
2009,08,11,06,56,12.30
2009,08,11,06,57,12.30
2009,08,11,06,58,12.30
2009,08,11,06,59,12.30
2009,08,11,07,00,12.30
2009,08,11,07,01,12.30
2009,08,11,07,02,12.30
2009,08,11,07,03,12.30
2009,08,11,07,04,12.30
2009,08,11,07,05,12.30
2009,08,11,07,06,12.30
2009,08,11,07,07,12.30
2009,08,11,07,08,12.30
2009,08,11,07,09,12.30
2009,08,11,07,10,12.30
2009,08,11,07,11,12.30
2009,08,11,07,12,12.30
2009,08,11,07,13,12.30
2009,08,11,07,14,12.30
2009,08,11,07,15,12.30
2009,08,11,07,16,12.20
2009,08,11,07,17,12.10
2009,08,11,07,18,12.00
2009,08,11,07,19,12.00
2009,08,11,07,20,12.00
2009,08,11,07,21,12.00
2009,08,11,07,22,12.00
2009,08,11,07,23,11.90
2009,08,11,07,24,11.90
2009,08,11,07,25,11.90
2009,08,11,07,26,11.90
2009,08,11,07,27,11.90
2009,08,11,07,28,11.80
2009,08,11,07,29,11.80
2009,08,11,07,30,11.80
2009,08,11,07,31,11.80
2009,08,11,07,32,11.80
2009,08,11,07,33,11.80
2009,08,11,07,34,11.70
2009,08,11,07,35,11.70
2009,08,11,07,36,11.70
2009,08,11,07,37,11.70
2009,08,11,07,38,11.70
2009,08,11,07,39,11.70
2009,08,11,07,40,11.70
2009,08,11,07,41,11.70
2009,08,11,07,42,11.70
2009,08,11,07,43,11.70
2009,08,11,07,44,11.70
2009,08,11,07,45,11.60
2009,08,11,07,46,11.60
2009,08,11,07,47,11.60
2009,08,11,07,48,11.60
2009,08,11,07,49,11.60
2009,08,11,07,50,11.60
2009,08,11,07,51,11.60
2009,08,11,07,52,11.60
2009,08,11,07,53,11.60
2009,08,11,07,54,11.70
2009,08,11,07,55,11.70
2009,08,11,07,56,11.70
2009,08,11,07,57,11.70
2009,08,11,07,58,11.80
2009,08,11,07,59,11.80
2009,08,11,08,00,12.00
2009,08,11,08,01,12.00
2009,08,11,08,02,12.10
2009,08,11,08,03,12.20
2009,08,11,08,04,12.30
2009,08,11,08,05,12.40
2009,08,11,08,06,12.50
2009,08,11,08,07,12.50
2009,08,11,08,08,12.50
2009,08,11,08,09,12.50
2009,08,11,08,10,12.50
2009,08,11,08,11,12.50
2009,08,11,08,12,12.50
2009,08,11,08,13,12.50
2009,08,11,08,14,12.50
2009,08,11,08,15,12.50
2009,08,11,08,16,12.50
2009,08,11,08,17,12.60
2009,08,11,08,18,12.60
2009,08,11,08,19,12.70
2009,08,11,08,20,12.70
2009,08,11,08,21,12.80
2009,08,11,08,22,12.60
2009,08,11,08,23,12.50
2009,08,11,08,24,12.40
2009,08,11,08,25,12.40
2009,08,11,08,26,12.40
2009,08,11,08,27,12.40
2009,08,11,08,28,12.40
2009,08,11,08,29,12.40
2009,08,11,08,30,12.50
2009,08,11,08,31,12.50
2009,08,11,08,32,12.50
2009,08,11,08,33,12.50
2009,08,11,08,34,12.50
2009,08,11,08,35,12.50
2009,08,11,08,36,12.50
2009,08,11,08,37,12.60
2009,08,11,08,38,12.60
2009,08,11,08,39,12.60
2009,08,11,08,40,12.60
2009,08,11,08,41,12.60
2009,08,11,08,42,12.60
2009,08,11,08,43,12.60
2009,08,11,08,44,12.60
2009,08,11,08,45,12.80
2009,08,11,08,46,12.80
2009,08,11,08,47,12.90
2009,08,11,08,48,13.00
2009,08,11,08,49,13.10
2009,08,11,08,50,13.10
2009,08,11,08,51,13.20
2009,08,11,08,52,13.30
2009,08,11,08,53,13.40
2009,08,11,08,54,13.60
2009,08,11,08,55,13.70
2009,08,11,08,56,13.70
2009,08,11,08,57,13.80
2009,08,11,08,58,13.90
2009,08,11,08,59,14.00
2009,08,11,09,00,14.10
2009,08,11,09,01,14.20
2009,08,11,09,02,14.20
2009,08,11,09,03,14.20
2009,08,11,09,04,14.20
2009,08,11,09,05,14.20
2009,08,11,09,06,14.20
2009,08,11,09,07,14.20
2009,08,11,09,08,14.00
2009,08,11,09,09,13.80
2009,08,11,09,10,13.80
2009,08,11,09,11,13.80
2009,08,11,09,12,13.90
2009,08,11,09,13,13.90
2009,08,11,09,14,13.80
2009,08,11,09,15,13.80
2009,08,11,09,16,13.70
2009,08,11,09,17,13.60
2009,08,11,09,18,13.50
2009,08,11,09,19,13.30
2009,08,11,09,20,13.30
2009,08,11,09,21,13.30
2009,08,11,09,22,13.30
2009,08,11,09,23,13.30
2009,08,11,09,24,13.30
2009,08,11,09,25,13.40
2009,08,11,09,26,13.50
2009,08,11,09,27,13.60
2009,08,11,09,28,13.60
2009,08,11,09,29,13.70
2009,08,11,09,30,13.80
2009,08,11,09,31,13.90
2009,08,11,09,32,13.90
2009,08,11,09,33,14.00
2009,08,11,09,34,14.10
2009,08,11,09,35,14.20
2009,08,11,09,36,14.30
2009,08,11,09,37,14.40
2009,08,11,09,38,14.50
2009,08,11,09,39,14.50
2009,08,11,09,40,14.50
2009,08,11,09,41,14.60
2009,08,11,09,42,14.60
2009,08,11,09,43,14.70
2009,08,11,09,44,14.70
2009,08,11,09,45,14.70
2009,08,11,09,46,14.70
2009,08,11,09,47,14.80
2009,08,11,09,48,14.90
2009,08,11,09,49,14.90
2009,08,11,09,50,14.80
2009,08,11,09,51,14.70
2009,08,11,09,52,14.50
2009,08,11,09,53,14.30
2009,08,11,09,54,14.30
2009,08,11,09,55,14.40
2009,08,11,09,56,14.50
2009,08,11,09,57,14.60
2009,08,11,09,58,14.70
2009,08,11,09,59,14.70
2009,08,11,10,00,14.60
2009,08,11,10,01,14.50
2009,08,11,10,02,14.40
2009,08,11,10,03,14.30
2009,08,11,10,04,14.20
2009,08,11,10,05,14.10
2009,08,11,10,06,14.10
2009,08,11,10,07,14.00
2009,08,11,10,08,13.90
2009,08,11,10,09,13.90
2009,08,11,10,10,14.10
2009,08,11,10,11,14.10
2009,08,11,10,12,14.10
2009,08,11,10,13,14.10
2009,08,11,10,14,14.20
2009,08,11,10,15,14.10
2009,08,11,10,16,14.20
2009,08,11,10,17,14.20
2009,08,11,10,18,14.20
2009,08,11,10,19,14.30
2009,08,11,10,20,14.50
2009,08,11,10,21,14.60
2009,08,11,10,22,14.60
2009,08,11,10,23,14.60
2009,08,11,10,24,14.60
2009,08,11,10,25,14.70
2009,08,11,10,26,14.80
2009,08,11,10,27,14.80
2009,08,11,10,28,14.90
2009,08,11,10,29,14.90
2009,08,11,10,30,14.80
2009,08,11,10,31,14.80
2009,08,11,10,32,14.80
2009,08,11,10,33,14.90
2009,08,11,10,34,14.90
2009,08,11,10,35,15.00
2009,08,11,10,36,15.10
2009,08,11,10,37,15.20
2009,08,11,10,38,15.30
2009,08,11,10,39,15.40
2009,08,11,10,40,15.50
2009,08,11,10,41,15.60
2009,08,11,10,42,15.60
2009,08,11,10,43,15.60
2009,08,11,10,44,15.60
2009,08,11,10,45,15.50
2009,08,11,10,46,15.40
2009,08,11,10,47,15.30
2009,08,11,10,48,15.20
2009,08,11,10,49,15.20
2009,08,11,10,50,15.10
2009,08,11,10,51,15.10
2009,08,11,10,52,15.20
2009,08,11,10,53,15.10
2009,08,11,10,54,15.10
2009,08,11,10,55,15.10
2009,08,11,10,56,15.20
2009,08,11,10,57,15.30
2009,08,11,10,58,15.30
2009,08,11,10,59,15.50
2009,08,11,11,00,15.50
2009,08,11,11,01,15.50
2009,08,11,11,02,15.40
2009,08,11,11,03,15.40
2009,08,11,11,04,15.40
2009,08,11,11,05,15.50
2009,08,11,11,06,15.50
2009,08,11,11,07,15.60
2009,08,11,11,08,15.70
2009,08,11,11,09,15.80
2009,08,11,11,10,15.80
2009,08,11,11,11,15.80
2009,08,11,11,12,15.80
2009,08,11,11,13,15.80
2009,08,11,11,14,15.80
2009,08,11,11,15,15.90
2009,08,11,11,16,15.80
2009,08,11,11,17,15.80
2009,08,11,11,18,15.80
2009,08,11,11,19,15.80
2009,08,11,11,20,15.80
2009,08,11,11,21,15.70
2009,08,11,11,22,15.70
2009,08,11,11,23,15.70
2009,08,11,11,24,15.70
2009,08,11,11,25,15.80
2009,08,11,11,26,15.90
2009,08,11,11,27,16.00
2009,08,11,11,28,16.10
2009,08,11,11,29,16.30
2009,08,11,11,30,16.30
2009,08,11,11,31,16.30
2009,08,11,11,32,16.30
2009,08,11,11,33,16.30
2009,08,11,11,34,16.10
2009,08,11,11,35,16.10
2009,08,11,11,36,16.00
2009,08,11,11,37,15.90
2009,08,11,11,38,15.80
2009,08,11,11,39,15.70
2009,08,11,11,40,15.60
2009,08,11,11,41,15.50
2009,08,11,11,42,15.40
2009,08,11,11,43,15.30
2009,08,11,11,44,15.30
2009,08,11,11,45,15.20
2009,08,11,11,46,15.10
2009,08,11,11,47,15.00
2009,08,11,11,48,15.10
2009,08,11,11,49,15.20
2009,08,11,11,50,15.30
2009,08,11,11,51,15.40
2009,08,11,11,52,15.60
2009,08,11,11,53,15.80
2009,08,11,11,54,15.90
2009,08,11,11,55,15.90
2009,08,11,11,56,15.80
2009,08,11,11,57,15.80
2009,08,11,11,58,15.80
2009,08,11,11,59,15.80
2009,08,11,12,00,15.80
2009,08,11,12,01,15.90
2009,08,11,12,02,16.00
2009,08,11,12,03,16.20
2009,08,11,12,04,16.30
2009,08,11,12,05,16.40
2009,08,11,12,06,16.50
2009,08,11,12,07,16.40
2009,08,11,12,08,16.40
2009,08,11,12,09,16.40
2009,08,11,12,10,16.40
2009,08,11,12,11,16.40
2009,08,11,12,12,16.40
2009,08,11,12,13,16.20
2009,08,11,12,14,16.10
2009,08,11,12,15,15.90
2009,08,11,12,16,15.90
2009,08,11,12,17,16.00
2009,08,11,12,18,16.20
2009,08,11,12,19,16.20
2009,08,11,12,20,16.20
2009,08,11,12,21,16.10
2009,08,11,12,22,15.90
2009,08,11,12,23,15.90
2009,08,11,12,24,15.80
2009,08,11,12,25,15.70
2009,08,11,12,26,15.70
2009,08,11,12,27,15.70
2009,08,11,12,28,15.70
2009,08,11,12,29,15.60
2009,08,11,12,30,15.60
2009,08,11,12,31,15.80
2009,08,11,12,32,16.00
2009,08,11,12,33,16.10
2009,08,11,12,34,16.00
2009,08,11,12,35,15.90
2009,08,11,12,36,16.10
2009,08,11,12,37,16.10
2009,08,11,12,38,15.90
2009,08,11,12,39,15.80
2009,08,11,12,40,15.80
2009,08,11,12,41,15.80
2009,08,11,12,42,15.80
2009,08,11,12,43,15.70
2009,08,11,12,44,15.80
2009,08,11,12,45,15.80
2009,08,11,12,46,15.80
2009,08,11,12,47,15.80
2009,08,11,12,48,15.80
2009,08,11,12,49,15.80
2009,08,11,12,50,15.70
2009,08,11,12,51,15.70
2009,08,11,12,52,15.80
2009,08,11,12,53,15.80
2009,08,11,12,54,15.80
2009,08,11,12,55,15.90
2009,08,11,12,56,16.10
2009,08,11,12,57,16.20
2009,08,11,12,58,16.20
2009,08,11,12,59,16.20
2009,08,11,13,00,16.30
2009,08,11,13,01,16.30
2009,08,11,13,02,16.20
2009,08,11,13,03,16.20
2009,08,11,13,04,16.10
2009,08,11,13,05,16.20
2009,08,11,13,06,16.20
2009,08,11,13,07,16.10
2009,08,11,13,08,16.20
2009,08,11,13,09,16.20
2009,08,11,13,10,16.30
2009,08,11,13,11,16.40
2009,08,11,13,12,16.50
2009,08,11,13,13,16.40
2009,08,11,13,14,16.60
2009,08,11,13,15,16.60
2009,08,11,13,16,16.60
2009,08,11,13,17,16.40
2009,08,11,13,18,16.40
2009,08,11,13,19,16.20
2009,08,11,13,20,16.20
2009,08,11,13,21,16.30
2009,08,11,13,22,16.30
2009,08,11,13,23,16.40
2009,08,11,13,24,16.30
2009,08,11,13,25,16.20
2009,08,11,13,26,16.30
2009,08,11,13,27,16.40
2009,08,11,13,28,16.60
2009,08,11,13,29,16.70
2009,08,11,13,30,16.80
2009,08,11,13,31,17.00
2009,08,11,13,32,17.10
2009,08,11,13,33,17.10
2009,08,11,13,34,17.00
2009,08,11,13,35,16.90
2009,08,11,13,36,17.10
2009,08,11,13,37,17.10
2009,08,11,13,38,17.00
2009,08,11,13,39,16.80
2009,08,11,13,40,16.70
2009,08,11,13,41,16.70
2009,08,11,13,42,16.70
2009,08,11,13,43,16.70
2009,08,11,13,44,16.80
2009,08,11,13,45,16.90
2009,08,11,13,46,17.00
2009,08,11,13,47,17.00
2009,08,11,13,48,17.10
2009,08,11,13,49,17.00
2009,08,11,13,50,16.90
2009,08,11,13,51,16.80
2009,08,11,13,52,16.70
2009,08,11,13,53,16.70
2009,08,11,13,54,16.70
2009,08,11,13,55,16.70
2009,08,11,13,56,16.70
2009,08,11,13,57,16.80
2009,08,11,13,58,17.00
2009,08,11,13,59,17.20
2009,08,11,14,00,17.20
2009,08,11,14,01,17.00
2009,08,11,14,02,16.90
2009,08,11,14,03,16.90
2009,08,11,14,04,16.80
2009,08,11,14,05,16.80
2009,08,11,14,06,16.80
2009,08,11,14,07,16.70
2009,08,11,14,08,16.70
2009,08,11,14,09,16.70
2009,08,11,14,10,16.80
2009,08,11,14,11,16.80
2009,08,11,14,12,16.80
2009,08,11,14,13,16.90
2009,08,11,14,14,17.00
2009,08,11,14,15,17.10
2009,08,11,14,16,17.10
2009,08,11,14,17,17.10
2009,08,11,14,18,17.20
2009,08,11,14,19,17.30
2009,08,11,14,20,17.40
2009,08,11,14,21,17.50
2009,08,11,14,22,17.60
2009,08,11,14,23,17.70
2009,08,11,14,24,17.70
2009,08,11,14,25,17.60
2009,08,11,14,26,17.60
2009,08,11,14,27,17.80
2009,08,11,14,28,17.80
2009,08,11,14,29,17.80
2009,08,11,14,30,17.80
2009,08,11,14,31,17.90
2009,08,11,14,32,17.90
2009,08,11,14,33,18.00
2009,08,11,14,34,18.00
2009,08,11,14,35,18.20
2009,08,11,14,36,18.30
2009,08,11,14,37,18.30
2009,08,11,14,38,18.30
2009,08,11,14,39,18.20
2009,08,11,14,40,18.10
2009,08,11,14,41,18.10
2009,08,11,14,42,18.20
2009,08,11,14,43,18.20
2009,08,11,14,44,18.10
2009,08,11,14,45,17.90
2009,08,11,14,46,17.70
2009,08,11,14,47,17.80
2009,08,11,14,48,17.90
2009,08,11,14,49,17.80
2009,08,11,14,50,17.80
2009,08,11,14,51,17.70
2009,08,11,14,52,17.60
2009,08,11,14,53,17.50
2009,08,11,14,54,17.50
2009,08,11,14,55,17.60
2009,08,11,14,56,17.70
2009,08,11,14,57,17.90
2009,08,11,14,58,17.90
2009,08,11,14,59,17.70
2009,08,11,15,00,17.70
2009,08,11,15,01,17.70
2009,08,11,15,02,17.80
2009,08,11,15,03,17.80
2009,08,11,15,04,17.80
2009,08,11,15,05,17.80
2009,08,11,15,06,17.60
2009,08,11,15,07,17.50
2009,08,11,15,08,17.50
2009,08,11,15,09,17.40
2009,08,11,15,10,17.40
2009,08,11,15,11,17.40
2009,08,11,15,12,17.40
2009,08,11,15,13,17.30
2009,08,11,15,14,17.20
2009,08,11,15,15,17.20
2009,08,11,15,16,17.10
2009,08,11,15,17,17.10
2009,08,11,15,18,17.30
2009,08,11,15,19,17.30
2009,08,11,15,20,17.50
2009,08,11,15,21,17.50
2009,08,11,15,22,17.50
2009,08,11,15,23,17.60
2009,08,11,15,24,17.60
2009,08,11,15,25,17.50
2009,08,11,15,26,17.40
2009,08,11,15,27,17.30
2009,08,11,15,28,17.30
2009,08,11,15,29,17.40
2009,08,11,15,30,17.50
2009,08,11,15,31,17.50
2009,08,11,15,32,17.50
2009,08,11,15,33,17.40
2009,08,11,15,34,17.50
2009,08,11,15,35,17.60
2009,08,11,15,36,17.70
2009,08,11,15,37,17.60
2009,08,11,15,38,17.60
2009,08,11,15,39,17.50
2009,08,11,15,40,17.50
2009,08,11,15,41,17.50
2009,08,11,15,42,17.70
2009,08,11,15,43,17.80
2009,08,11,15,44,17.80
2009,08,11,15,45,17.80
2009,08,11,15,46,17.80
2009,08,11,15,47,17.50
2009,08,11,15,48,17.40
2009,08,11,15,49,17.20
2009,08,11,15,50,17.20
2009,08,11,15,51,17.20
2009,08,11,15,52,17.30
2009,08,11,15,53,17.30
2009,08,11,15,54,17.20
2009,08,11,15,55,17.20
2009,08,11,15,56,17.20
2009,08,11,15,57,17.30
2009,08,11,15,58,17.20
2009,08,11,15,59,17.20
2009,08,11,16,00,17.10
2009,08,11,16,01,16.90
2009,08,11,16,02,16.90
2009,08,11,16,03,16.90
2009,08,11,16,04,16.90
2009,08,11,16,05,16.90
2009,08,11,16,06,17.00
2009,08,11,16,07,17.00
2009,08,11,16,08,17.10
2009,08,11,16,09,17.10
2009,08,11,16,10,17.10
2009,08,11,16,11,17.30
2009,08,11,16,12,17.30
2009,08,11,16,13,17.30
2009,08,11,16,14,17.40
2009,08,11,16,15,17.50
2009,08,11,16,16,17.50
2009,08,11,16,17,17.50
2009,08,11,16,18,17.40
2009,08,11,16,19,17.30
2009,08,11,16,20,17.30
2009,08,11,16,21,17.30
2009,08,11,16,22,17.40
2009,08,11,16,23,17.50
2009,08,11,16,24,17.60
2009,08,11,16,25,17.50
2009,08,11,16,26,17.50
2009,08,11,16,27,17.40
2009,08,11,16,28,17.40
2009,08,11,16,29,17.30
2009,08,11,16,30,17.30
2009,08,11,16,31,17.20
2009,08,11,16,32,17.10
2009,08,11,16,33,17.10
2009,08,11,16,34,17.10
2009,08,11,16,35,17.20
2009,08,11,16,36,17.10
2009,08,11,16,37,17.10
2009,08,11,16,38,17.10
2009,08,11,16,39,17.10
2009,08,11,16,40,17.10
2009,08,11,16,41,17.10
2009,08,11,16,42,17.10
2009,08,11,16,43,17.00
2009,08,11,16,44,17.00
2009,08,11,16,45,17.00
2009,08,11,16,46,17.00
2009,08,11,16,47,17.00
2009,08,11,16,48,17.10
2009,08,11,16,49,17.10
2009,08,11,16,50,17.10
2009,08,11,16,51,17.20
2009,08,11,16,52,17.40
2009,08,11,16,53,17.50
2009,08,11,16,54,17.60
2009,08,11,16,55,17.80
2009,08,11,16,56,17.90
2009,08,11,16,57,17.80
2009,08,11,16,58,17.80
2009,08,11,16,59,17.80
2009,08,11,17,00,17.80
2009,08,11,17,01,17.70
2009,08,11,17,02,17.60
2009,08,11,17,03,17.50
2009,08,11,17,04,17.40
2009,08,11,17,05,17.30
2009,08,11,17,06,17.20
2009,08,11,17,07,17.20
2009,08,11,17,08,17.20
2009,08,11,17,09,17.20
2009,08,11,17,10,17.20
2009,08,11,17,11,17.30
2009,08,11,17,12,17.30
2009,08,11,17,13,17.30
2009,08,11,17,14,17.30
2009,08,11,17,15,17.40
2009,08,11,17,16,17.50
2009,08,11,17,17,17.50
2009,08,11,17,18,17.40
2009,08,11,17,19,17.40